CW5039 Weather Reports


Display with metric or nautical units.
time (UTC)temp
F
wind
direction
speed
MPH
gust
MPH
rain 1hr
in
rain 24hr
in
rain mn
in
humidity
%
barometer
mb
20260506154406 55 266 3.0 5.0 0.00 0.00 0.00 94 1025.2
20260506153906 56 101 0.0 0.0 0.00 0.00 0.00 94 1025.1
20260506153406 55 101 0.0 0.0 0.00 0.00 0.00 94 1025.1
20260506152406 56 101 0.0 1.0 0.00 0.00 0.00 94 1025.1
20260506151905 56 101 2.0 3.0 0.00 0.00 0.00 94 1025.1
20260506145905 57 115 3.0 3.0 0.00 0.00 0.00 94 1025.3
20260506144406 57 123 1.0 1.0 0.00 0.00 0.00 94 1025.5
20260506143406 57 123 2.0 3.0 0.00 0.00 0.00 94 1025.8
20260506142906 57 110 3.0 3.0 0.00 0.00 0.00 94 1025.9
20260506142406 57 110 3.0 3.0 0.00 0.00 0.00 94 1026.0
20260506141406 57 106 2.0 3.0 0.00 0.00 0.00 94 1026.0
20260506140906 57 183 1.0 2.0 0.00 0.00 0.00 94 1026.1
20260506140406 57 255 0.0 2.0 0.00 0.00 0.00 94 1026.4
20260506135906 57 255 1.0 2.0 0.00 0.00 0.00 94 1026.4
20260506135406 57 255 1.0 3.0 0.00 0.00 0.00 94 1026.5
20260506134405 57 269 3.0 3.0 0.00 0.00 0.00 94 1026.6
20260506133906 57 298 3.0 8.0 0.00 0.00 0.00 94 1026.6
20260506133405 57 298 5.0 9.0 0.00 0.00 0.00 94 1026.5
20260506132905 57 283 5.0 7.0 0.00 0.00 0.00 94 1026.5
20260506131405 58 116 6.0 7.0 0.00 0.00 0.00 94 1026.2
20260506130905 58 117 6.0 6.0 0.00 0.00 0.00 94 1026.2
20260506124405 57 255 0.0 1.0 0.00 0.00 0.00 94 1026.5
20260506123906 57 255 1.0 2.0 0.00 0.00 0.00 94 1026.5
20260506123406 57 255 2.0 3.0 0.00 0.00 0.00 94 1026.6
20260506122905 58 103 0.0 2.0 0.00 0.00 0.00 94 1026.6
20260506121906 57 75 0.0 0.0 0.00 0.00 0.00 94 1026.7
20260506120405 56 75 0.0 0.0 0.00 0.00 0.00 94 1026.7
20260506114906 55 75 0.0 0.0 0.00 0.00 0.00 93 1026.7
20260506114406 56 75 0.0 0.0 0.00 0.00 0.00 93 1026.7
20260506113906 56 75 0.0 1.0 0.00 0.00 0.00 93 1026.7
20260506112906 56 75 1.0 2.0 0.00 0.00 0.00 93 1026.8
20260506110906 53 74 0.0 0.0 0.00 0.00 0.00 91 1026.9
20260506105406 57 74 1.0 2.0 0.00 0.00 0.00 92 1026.8
20260506104406 57 74 1.0 2.0 0.00 0.00 0.00 92 1026.9
20260506101905 57 74 2.0 3.0 0.00 0.00 0.00 90 1026.9
20260506094908 59 79 5.0 7.0 0.00 0.00 0.00 91 1027.0
20260506093920 60 75 5.0 6.0 0.00 0.00 0.00 91 1027.0
20260506092914 60 81 5.0 6.0 0.00 0.00 0.00 91 1026.9
20260506091907 60 66 5.0 6.0 0.00 0.00 0.00 91 1026.9
20260506091422 60 65 5.0 7.0 0.00 0.00 0.00 91 1026.9
20260506090907 61 59 5.0 7.0 0.00 0.00 0.00 91 1026.9
20260506090407 61 61 6.0 8.0 0.00 0.00 0.00 91 1026.9
20260506085909 60 59 6.0 8.0 0.00 0.00 0.00 92 1027.0
20260506084909 60 47 4.0 5.0 0.00 0.00 0.00 91 1027.0
20260506083911 59 57 5.0 8.0 0.00 0.00 0.00 91 1027.1
20260506081907 59 48 3.0 5.0 0.00 0.00 0.00 91 1027.1
20260506081407 59 48 3.0 3.0 0.00 0.00 0.00 91 1027.1
20260506072906 58 21 1.0 2.0 0.00 0.00 0.00 89 1027.3
20260506072407 58 22 1.0 3.0 0.00 0.00 0.00 89 1027.3
20260506070906 59 36 5.0 6.0 0.00 0.00 0.00 89 1027.1
20260506062405 61 67 5.0 6.0 0.00 0.00 0.00 87 1026.9
20260506061905 61 84 5.0 6.0 0.00 0.00 0.00 86 1026.8
20260506060905 63 61 6.0 7.0 0.00 0.00 0.00 84 1026.7
20260506044905 67 66 5.0 9.0 0.00 0.00 0.00 79 1026.6
20260506042905 69 77 8.0 12.0 0.00 0.00 0.00 77 1026.6
20260506042405 69 89 7.0 10.0 0.00 0.00 0.00 77 1026.6
20260506040405 69 70 4.0 6.0 0.00 0.00 0.00 81 1026.6
20260506035905 68 81 2.0 3.0 0.00 0.00 0.00 80 1026.7
20260506034405 69 106 2.0 5.0 0.00 0.00 0.00 79 1026.7
20260506033906 69 96 3.0 5.0 0.00 0.00 0.00 78 1026.8
20260506031905 69 86 1.0 3.0 0.00 0.00 0.00 80 1026.9
20260506031406 69 86 1.0 3.0 0.00 0.00 0.00 80 1026.9
20260506030905 69 87 2.0 5.0 0.00 0.00 0.00 80 1027.0
20260506024904 69 83 2.0 3.0 0.00 0.00 0.00 79 1027.1
20260506023905 69 65 3.0 6.0 0.00 0.00 0.00 78 1027.1
20260506022905 69 65 3.0 6.0 0.00 0.00 0.00 77 1027.1
20260506022405 70 27 0.0 3.0 0.00 0.00 0.00 76 1027.1
20260506020906 70 36 3.0 3.0 0.00 0.00 0.00 77 1027.1
20260506015905 69 38 1.0 2.0 0.00 0.00 0.00 80 1027.0
20260506015405 68 38 2.0 3.0 0.00 0.00 0.00 81 1027.1
20260506014905 68 59 3.0 5.0 0.00 0.00 0.00 81 1027.1
20260506014405 68 68 4.0 6.0 0.00 0.00 0.00 81 1027.2
20260506013405 68 72 6.0 8.0 0.00 0.00 0.00 80 1027.3
20260506012404 69 55 5.0 9.0 0.00 0.00 0.00 79 1027.4
20260506011405 69 24 3.0 5.0 0.00 0.00 0.00 79 1027.4
20260506010905 69 8 2.0 3.0 0.00 0.00 0.00 80 1027.5
20260506004904 68 30 5.0 9.0 0.00 0.00 0.00 81 1027.7
20260506003404 68 48 6.0 8.0 0.00 0.00 0.00 81 1027.8
20260506002404 68 42 7.0 10.0 0.00 0.00 0.00 81 1028.0
20260506000905 68 52 5.0 7.0 0.00 0.00 0.00 82 1028.1
20260505235905 68 41 5.0 7.0 0.00 0.00 0.00 81 1028.2
20260505235406 67 62 6.0 10.0 0.00 0.00 0.00 82 1028.4
20260505233906 68 71 5.0 7.0 0.00 0.00 0.00 81 1028.5
20260505233405 68 68 6.0 8.0 0.00 0.00 0.00 82 1028.5
20260505232905 68 65 4.0 6.0 0.00 0.00 0.00 81 1028.6
20260505232406 68 49 5.0 7.0 0.00 0.00 0.00 83 1028.7
20260505230905 67 67 3.0 7.0 0.00 0.00 0.00 85 1028.9
20260505225906 66 91 2.0 5.0 0.00 0.00 0.00 87 1029.0
20260505225405 65 94 4.0 7.0 0.00 0.00 0.00 88 1029.0
20260505222904 64 71 3.0 5.0 0.00 0.00 0.00 90 1029.3
20260505221905 63 70 6.0 7.0 0.00 0.00 0.00 90 1029.4
20260505220905 64 70 5.0 7.0 0.00 0.00 0.00 90 1029.4
20260505215905 64 84 2.0 5.0 0.00 0.00 0.00 91 1029.4
20260505215405 64 100 2.0 3.0 0.00 0.00 0.00 92 1029.4
20260505214905 63 209 1.0 3.0 0.00 0.00 0.00 93 1029.4
20260505214405 62 228 1.0 2.0 0.00 0.00 0.00 93 1029.4
20260505213405 61 229 0.0 1.0 0.00 0.00 0.00 94 1029.5
20260505212905 61 229 0.0 0.0 0.00 0.00 0.00 94 1029.7
20260505212404 60 229 0.0 0.0 0.00 0.00 0.00 94 1029.7
20260505210905 59 229 0.0 0.0 0.00 0.00 0.00 94 1029.7
20260505205905 58 229 0.0 0.0 0.00 0.00 0.00 94 1029.8
20260505205404 58 228 0.0 0.0 0.00 0.00 0.00 94 1029.8
20260505204905 58 228 0.0 0.0 0.00 0.00 0.00 94 1029.8
20260505204405 58 228 0.0 0.0 0.00 0.00 0.00 94 1029.8
20260505203405 57 228 0.0 0.0 0.00 0.00 0.00 95 1029.7
20260505202905 57 226 0.0 0.0 0.00 0.00 0.00 94 1029.7
20260505202405 57 226 0.0 0.0 0.00 0.00 0.00 95 1029.6
20260505200904 57 224 0.0 0.0 0.00 0.00 0.00 95 1029.3
20260505200405 57 223 0.0 0.0 0.00 0.00 0.00 95 1029.2
20260505195405 56 223 0.0 1.0 0.00 0.00 0.00 94 1029.2
20260505194904 56 225 0.0 1.0 0.00 0.00 0.00 94 1029.2
20260505194406 55 225 0.0 1.0 0.00 0.00 0.00 94 1029.1
20260505193906 55 225 0.0 1.0 0.00 0.00 0.00 94 1029.1
20260505190906 55 226 0.0 0.0 0.00 0.00 0.00 94 1029.1
20260505185906 55 226 0.0 0.0 0.00 0.00 0.00 94 1028.9
20260505185406 55 226 0.0 0.0 0.00 0.00 0.00 94 1028.9
20260505184906 54 226 0.0 0.0 0.00 0.00 0.00 94 1028.9
20260505184405 54 226 0.0 0.0 0.00 0.00 0.00 94 1028.8
20260505183406 54 226 0.0 0.0 0.00 0.00 0.00 94 1028.8
20260505182406 55 226 0.0 0.0 0.00 0.00 0.00 94 1028.8
20260505180906 55 226 0.0 0.0 0.00 0.00 0.00 94 1028.8
20260505174906 56 226 0.0 0.0 0.00 0.00 0.00 94 1028.8
20260505173406 56 226 0.0 1.0 0.00 0.00 0.00 94 1028.8
20260505172906 56 226 1.0 3.0 0.00 0.00 0.00 94 1028.8
20260505172406 56 226 2.0 3.0 0.00 0.00 0.00 94 1028.8
20260505171906 56 226 2.0 3.0 0.00 0.00 0.00 94 1028.9
20260505170406 56 226 2.0 3.0 0.00 0.00 0.00 94 1028.9
20260505165906 56 226 1.0 3.0 0.00 0.00 0.00 94 1028.9
20260505161905 55 226 0.0 0.0 0.00 0.00 0.00 94 1028.9
20260505161406 55 226 0.0 0.0 0.00 0.00 0.00 94 1028.9
20260505160906 55 226 0.0 0.0 0.00 0.00 0.00 94 1028.9
20260505160406 55 226 0.0 0.0 0.00 0.00 0.00 94 1029.0